EHI
0 0 0 0 0 0 0 0 0 0 0 0 3 10 19 30 42 50 50 50 51 51 47 41 34 28 25 23 17 14 13 13 11 6 4 3 3 3 2 1 1 3 4 4
0 0 0 0 0 0 0 0 0 0 0 1 5 13 22 31 41 48 49 49 50 49 48 43 36 29 24 21 18 17 15 13 9 6 4 3 3 3 3 3 2 2 3 4
0 0 0 0 0 0 0 0 0 0 1 4 7 14 22 29 39 47 48 48 50 50 47 44 36 28 22 18 16 16 13 10 7 5 5 3 1 2 4 5 3 2 3 3
0 0 0 0 0 0 0 0 1 1 3 6 8 12 19 27 37 44 48 52 56 54 47 40 33 25 18 13 11 10 8 6 3 3 3 2 1 2 4 5 3 3 3 2
0 0 0 0 0 0 0 1 4 6 6 7 8 9 17 29 39 46 51 57 60 55 46 38 31 24 17 11 7 6 5 3 2 1 2 2 1 1 3 3 2 2 2 1
0 0 0 0 0 0 0 3 8 11 11 11 11 13 22 35 45 52 58 61 59 51 42 35 31 26 20 13 8 6 5 5 3 3 2 1 0 0 2 2 1 1 1 0
0 0 0 1 1 2 2 5 11 15 16 17 20 25 33 42 50 59 63 61 55 47 38 34 32 28 23 15 9 6 7 7 6 4 2 1 0 1 2 2 1 1 1 0
0 0 0 1 3 5 8 12 16 21 23 24 27 31 36 42 49 58 60 55 49 43 39 35 32 28 22 14 8 6 8 8 6 4 3 2 1 2 3 3 3 2 2 1
0 0 0 1 4 8 15 20 23 25 26 26 26 28 31 35 40 46 47 46 43 40 37 34 31 26 19 11 7 6 7 6 5 5 5 4 3 3 3 2 2 2 2 1
0 0 2 3 6 11 18 24 25 24 24 23 24 26 27 30 33 34 36 36 35 33 30 27 24 20 14 9 7 7 6 5 6 7 6 5 4 3 2 1 1 1 1 1
2 3 5 8 11 14 18 20 20 20 21 22 26 28 27 27 29 31 31 30 27 24 21 17 14 12 9 7 7 8 6 5 6 7 5 5 4 3 2 1 0 0 1 2
6 6 8 10 12 13 14 16 17 18 20 24 28 29 27 27 28 29 27 24 20 17 14 10 7 6 6 6 7 8 6 5 5 4 4 4 3 2 1 1 0 0 1 1
7 7 7 8 8 9 11 13 15 17 19 22 23 24 24 24 24 23 20 17 14 12 10 8 5 4 4 4 5 6 4 3 3 3 3 3 3 2 1 0 0 0 0 0
4 4 4 5 6 7 9 11 12 14 15 15 15 15 16 16 16 15 14 12 10 7 6 5 3 2 2 2 3 3 2 1 1 2 3 3 3 2 1 0 0 0 0 0
1 2 3 4 4 5 6 8 8 8 7 8 9 9 8 8 9 10 9 8 6 4 4 3 2 1 1 1 1 1 0 0 0 1 2 2 2 1 0 0 0 0 0 0
1 2 3 4 4 4 4 4 4 2 2 3 5 6 6 6 6 7 6 5 4 3 3 2 1 0 0 0 0 0 0 0 0 0 1 1 1 0 0 0 0 0 0 0
0 1 2 4 4 3 3 3 2 1 0 0 2 4 6 6 6 6 4 3 2 2 1 1 1 0 0 0 0 0 0 0 0 0 0 0 0 0 0 0 0 0 0 0
0 0 1 1 2 2 2 3 3 2 1 1 1 2 4 5 5 4 2 1 1 1 0 0 0 0 0 0 0 0 0 0 0 0 0 0 0 0 0 0 0 0 0 0
0 0 0 0 0 1 2 4 4 3 2 1 1 1 2 3 3 2 0 0 0 0 0 0 0 0 0 0 0 0 0 0 0 0 0 0 0 0 0 0 0 0 0 0
0 0 0 0 0 0 2 4 4 3 2 1 1 1 1 1 1 0 0 0 0 0 0 0 0 0 0 0 0 0 0 0 0 0 0 0 0 0 0 0 0 0 0 0
0 0 0 0 0 0 1 2 2 2 2 2 1 0 0 0 0 0 0 0 0 0 0 0 0 0 0 0 0 0 0 0 0 0 0 0 0 0 0 0 0 0 0 0
0 0 0 0 0 0 0 0 1 1 1 2 1 0 0 0 0 0 0 0 0 0 0 0 0 0 0 0 0 0 0 0 0 0 0 0 0 0 0 0 0 0 0 0
0 0 0 0 0 0 0 0 0 0 1 1 1 0 0 0 0 0 0 0 0 0 0 0 0 0 0 0 0 0 0 0 0 0 0 0 0 0 0 0 0 0 0 0
0 0 0 0 0 0 0 0 0 0 0 1 1 1 0 0 0 0 0 0 0 0 0 0 0 0 0 0 0 0 0 0 0 0 0 0 0 0 0 0 0 0 0 0
0 0 0 0 0 0 0 0 0 0 1 1 2 2 1 0 0 0 0 0 0 0 0 0 0 0 0 0 0 0 0 0 0 0 0 0 0 0 0 0 0 0 0 0
0 0 0 0 0 0 0 0 0 1 2 2 2 2 1 0 0 0 0 0 0 0 0 0 0 0 0 0 0 0 0 0 0 0 0 0 0 0 0 0 0 0 0 0
0 0 0 0 0 0 0 0 1 2 3 3 2 1 1 0 0 0 0 0 0 0 0 0 0 0 0 0 0 0 0 0 0 0 0 0 0 0 0 0 0 0 0 0
Wind_Speed
11 5 6 10 12 14 16 15 12 9 10 8 5 4 5 8 10 11 11 11 11 10 9 9 8 8 7 6 6 5 5 4 4 3 3 3 2 2 2 2 2 2 2 2
11 10 10 10 10 12 14 13 13 11 9 4 1 3 6 9 11 12 12 12 12 11 10 10 9 8 7 7 6 6 5 5 4 4 3 3 2 2 3 2 2 2 2 2
11 9 10 14 13 13 12 11 11 11 7 2 3 5 7 10 12 12 12 12 12 11 10 10 9 9 8 7 7 6 6 5 4 4 4 4 3 3 3 3 4 3 3 3
8 8 14 6 3 8 11 10 9 8 5 3 3 3 5 7 10 11 12 12 12 11 11 10 10 9 8 8 7 6 6 5 5 4 4 4 4 4 3 3 3 3 3 3
9 12 11 5 4 5 9 9 6 7 6 3 1 4 6 7 8 10 11 11 11 11 11 11 10 10 9 8 7 6 6 5 5 4 5 5 5 4 3 3 4 3 3 4
9 12 12 6 4 1 6 8 0 3 4 3 5 7 4 6 6 8 9 10 11 11 11 11 10 10 9 8 7 6 5 5 5 5 5 5 5 4 4 4 4 4 4 3
12 12 7 4 2 5 9 1 4 3 3 4 4 3 3 6 7 8 9 10 11 11 10 10 10 9 8 8 7 6 5 5 5 5 5 5 4 4 4 4 4 4 4 4
11 13 7 5 1 3 4 6 4 4 3 2 0 1 3 6 8 9 10 10 10 10 9 9 9 9 8 7 6 6 6 6 5 5 4 4 5 4 4 4 4 4 3 3
5 2 5 4 3 5 6 6 5 5 3 1 1 2 4 6 7 8 9 9 9 9 10 8 8 7 8 7 6 6 6 5 5 5 4 4 4 4 4 3 3 3 3 3
4 2 2 3 3 5 5 6 5 4 2 0 2 3 5 6 7 7 8 8 8 9 9 8 7 7 7 7 6 6 6 5 5 5 4 4 2 2 2 2 2 2 2 3
5 2 2 2 5 6 6 5 4 3 2 2 2 3 5 6 7 7 7 7 7 7 8 8 7 7 7 6 6 6 6 5 4 4 5 4 3 2 1 2 2 0 2 3
3 3 4 4 6 6 5 4 3 3 3 3 3 4 5 6 6 7 7 7 7 7 8 8 7 7 6 6 6 6 5 5 4 4 4 4 4 5 9 7 8 8 6 3
6 6 6 6 5 4 4 3 2 3 3 3 4 5 6 7 6 7 7 7 6 6 7 7 7 6 5 5 5 5 5 4 4 4 4 4 4 5 5 6 9 9 8 7
5 6 6 4 3 3 2 1 2 3 4 4 5 6 7 7 7 7 7 6 6 7 6 7 6 6 5 5 5 5 5 5 4 4 4 4 4 4 4 5 5 5 6 7
5 6 6 4 4 2 1 2 3 4 5 6 6 7 7 7 7 7 6 6 6 7 6 6 6 5 4 5 5 5 4 4 4 4 4 4 4 4 5 5 5 5 6 6
5 5 5 4 4 3 3 3 3 4 4 6 7 7 7 8 8 7 6 6 6 6 5 5 5 5 4 4 5 4 4 5 4 4 4 4 4 4 5 5 5 5 5 6
6 6 5 4 4 3 2 3 3 4 5 6 7 8 8 9 8 8 6 6 6 6 5 5 5 5 4 4 5 4 5 5 6 4 4 4 4 5 5 5 5 4 4 4
8 7 6 5 4 3 2 3 3 4 5 6 8 8 8 8 8 7 6 7 7 7 5 5 5 5 5 5 4 4 5 4 4 4 4 4 4 5 5 5 5 5 5 5
6 5 5 4 4 3 3 3 4 5 6 7 8 8 7 7 7 7 7 7 6 6 5 5 5 5 5 6 4 4 5 6 5 5 5 5 4 4 4 5 5 5 5 5
3 3 3 4 4 4 4 5 6 6 6 7 8 8 8 7 7 7 7 5 4 4 5 5 5 5 6 5 4 5 6 6 6 5 5 5 5 5 4 5 5 5 5 5
1 2 3 3 4 5 5 6 7 7 7 7 7 7 8 8 7 6 6 5 5 5 6 5 4 4 5 4 4 5 6 6 6 5 5 5 4 5 5 5 5 4 4 4
1 1 2 3 5 6 5 5 6 7 8 8 8 8 8 8 8 6 5 5 5 4 4 5 5 5 4 4 5 6 6 6 5 5 5 4 4 4 4 5 4 4 4 4
1 3 4 4 5 7 7 6 7 7 8 8 8 8 7 6 5 6 6 5 5 4 4 5 6 6 3 4 5 5 6 5 5 5 5 4 4 4 4 5 4 4 4 4
3 4 5 5 7 8 8 8 7 7 8 7 7 7 7 6 5 5 6 7 6 4 4 6 7 5 5 3 4 5 5 5 4 4 4 4 4 4 4 4 4 4 4 5
5 6 7 7 7 7 8 9 9 8 8 7 8 7 5 5 5 6 6 7 6 4 5 7 6 5 5 4 4 4 4 3 3 2 3 3 3 4 3 3 4 4 4 5
6 6 5 6 5 5 6 6 6 6 7 7 7 6 6 6 7 6 5 7 7 5 4 5 5 5 4 4 4 3 3 4 4 3 3 3 3 3 3 4 5 4 4 4
7 6 6 6 5 5 6 6 6 6 6 7 7 6 6 6 6 6 6 5 5 4 4 4 4 4 3 3 3 3 2 3 3 3 3 3 3 3 3 4 4 3 4 4
Wind_Direction
251 245 217 212 209 208 221 239 249 245 247 251 242 221 184 171 167 167 168 169 169 167 163 160 156 154 150 145 145 148 149 150 155 158 155 150 148 157 161 166 175 180 191 195
229 229 228 233 224 214 221 234 246 255 258 257 220 177 174 174 174 174 174 174 171 167 163 161 158 154 148 145 144 145 143 136 131 133 129 127 128 128 129 128 125 130 139 139
222 206 217 227 222 218 217 224 236 242 249 236 209 199 191 184 182 180 177 174 171 167 164 159 155 151 148 146 145 144 138 131 127 126 124 120 122 121 119 111 104 99 98 97
226 199 225 218 203 228 229 231 239 257 270 260 254 220 201 194 187 181 177 172 166 161 157 154 151 147 147 147 147 145 140 137 136 133 126 120 115 108 104 102 101 97 93 93
229 222 224 185 180 218 224 229 242 249 256 259 216 197 188 184 187 180 173 166 160 158 154 150 149 149 149 149 148 148 146 144 142 139 133 129 122 115 110 106 103 105 101 97
230 239 231 196 134 200 237 222 208 264 254 234 204 229 162 153 169 165 161 155 152 150 148 149 149 151 153 152 152 154 150 146 142 143 140 134 127 124 118 115 114 111 103 98
232 235 234 69 94 198 223 225 27 341 302 241 226 325 77 141 152 152 149 148 148 148 149 148 150 152 154 152 151 148 142 139 134 135 136 135 130 131 132 131 123 119 113 105
228 235 219 64 181 242 357 0 350 336 318 290 233 79 114 133 140 144 142 144 146 143 140 143 149 153 150 146 140 140 140 138 137 139 140 136 137 137 139 142 140 138 129 118
248 258 52 30 2 3 340 330 333 329 331 310 178 144 128 131 136 139 138 139 142 139 135 137 145 152 146 136 137 140 139 138 136 135 133 136 143 148 150 156 158 150 145 136
250 185 24 4 4 356 346 335 332 332 334 239 154 137 130 130 131 130 130 134 137 137 136 134 138 140 134 135 140 140 138 136 137 139 135 123 122 138 148 151 153 155 154 149
243 274 297 82 19 2 356 357 7 30 51 84 124 129 127 126 126 126 126 126 130 133 131 130 132 131 132 138 144 143 142 143 142 136 128 119 99 58 82 74 45 152 161 158
288 9 324 340 350 342 346 4 26 46 62 77 105 115 120 121 123 124 123 124 127 128 128 127 126 124 126 134 143 145 144 143 143 139 135 133 123 93 55 61 60 52 40 61
300 318 313 304 315 331 341 0 37 72 86 91 99 111 117 117 117 116 117 115 115 119 121 122 122 119 123 132 138 142 143 142 144 144 144 140 136 133 122 91 74 65 61 71
288 288 279 291 317 324 333 15 76 91 97 103 109 111 112 114 115 115 115 115 117 119 121 122 121 121 127 133 137 141 142 136 142 142 143 142 143 140 136 133 123 103 82 83
282 275 272 278 280 269 226 169 137 123 117 113 113 116 120 119 115 113 115 117 118 117 115 118 119 117 125 137 140 139 136 132 128 127 132 135 137 136 132 130 127 126 125 112
284 273 259 247 242 217 204 184 160 143 136 127 119 119 123 119 117 114 115 122 125 120 120 124 122 122 127 135 132 125 118 115 124 130 130 129 131 131 131 132 133 135 137 137
267 258 255 245 232 211 202 186 163 152 148 137 128 124 122 120 118 114 114 113 111 111 115 116 116 122 132 136 134 125 122 125 132 130 129 131 132 130 131 132 136 137 132 120
262 258 257 255 247 225 192 164 151 148 145 137 132 130 130 129 125 122 121 118 115 109 104 107 111 120 124 122 120 119 124 130 131 124 123 125 127 131 133 133 135 131 124 127
257 250 245 233 219 205 187 162 145 137 133 135 136 135 132 128 125 125 124 124 124 119 112 106 111 124 120 115 117 124 126 127 123 121 121 123 130 130 132 132 132 133 136 140
262 243 228 214 188 170 160 150 140 135 136 139 136 133 130 127 128 127 124 117 108 109 120 124 132 121 122 125 138 131 131 130 128 128 130 136 136 135 135 134 136 138 143 148
258 219 199 181 155 145 144 142 139 138 138 138 135 133 129 127 130 131 130 118 105 110 124 135 132 124 123 135 156 133 132 132 134 137 138 139 139 140 143 145 147 151 155 159
25 121 139 137 134 127 123 128 132 134 133 129 127 128 129 130 129 122 112 112 121 129 135 129 119 111 123 155 137 130 134 137 139 140 141 144 148 151 152 153 157 160 164 167
97 110 117 124 127 123 119 121 125 127 126 126 129 132 131 129 133 132 125 119 127 134 128 113 109 123 162 169 137 139 140 142 143 145 148 152 154 156 159 164 167 169 172 176
109 107 107 116 122 125 122 119 117 117 119 121 124 128 131 129 119 108 108 117 123 141 124 115 133 155 198 165 144 143 141 142 146 151 153 156 160 167 173 176 175 177 181 187
106 108 113 117 119 119 121 122 122 123 122 119 118 119 117 111 113 113 118 126 133 143 127 132 152 179 191 157 146 145 148 146 150 164 168 173 183 185 187 189 190 193 196 198
103 102 101 106 111 118 122 121 118 119 119 116 111 108 108 110 116 121 129 135 136 138 133 137 151 180 172 148 147 155 155 152 172 195 189 189 196 202 201 202 207 213 209 210
99 100 101 98 98 103 107 108 109 110 111 112 111 110 111 114 118 122 126 132 138 141 139 145 155 166 163 160 161 169 179 186 195 200 197 200 208 213 213 216 222 223 227 224